#timestamp,LO_Frequency,Hit,StdDev 
1512072015.1,286047002.4,N
1512072035.8,286047001.7,N
1512072055.7,286047001.9,N
1512072075.5,286047003.9,Y
1512072095.4,286047001.3,P
1512072115.2,286047004.0,P
1512072135.0,286047002.1,N
1512072135.9,286047002.1,N
1512072155.8,286047002.0,N
1512072175.6,286047002.1,N
1512072195.5,286047001.8,N
1512072215.3,286047001.4,N
1512072235.1,286047001.4,N
1512072255.9,286047001.3,N
1512072275.7,286047002.2,N
1512072295.5,286047000.2,N
1512072315.4,286047000.6,N
1512072335.2,286047000.6,N
1512072355.0,286047000.2,N
1512072356.0,286047000.2,N
1512072375.8,286047001.1,N
1512072395.6,286046998.4,N
1512072415.5,286046998.5,N
1512072435.3,286047000.6,N
1512072455.2,286047000.4,N
1512072475.9,286047002.4,N
1512072495.7,286046999.7,N
1512072515.6,286047001.6,N
1512072535.4,286047002.1,N
1512072555.2,286047000.1,N
1512072575.1,286047000.4,N
1512072576.0,286047000.4,N
1512072595.8,286047002.4,N
1512072615.7,286047000.4,N
1512072635.5,286047002.6,N
1512072655.3,286047001.7,N
1512072675.2,286047001.7,N
1512072695.0,286047001.7,N
1512072695.9,286047001.7,N
1512072715.8,286047003.3,Y
1512072735.6,286047004.3,P
1512072755.4,286047001.8,N
1512072775.3,286047001.9,N
1512072795.1,286047001.4,N
1512072815.9,286047002.7,N
1512072835.7,286047002.1,N
1512072855.5,286047002.1,N
1512072875.4,286046999.8,N
1512072895.2,286047000.3,N
1512072915.1,286047002.7,N
1512072916.0,286047002.7,N
1512072935.8,286047002.6,N
1512072955.6,286046999.7,N
1512072975.5,286047002.5,N
1512072995.3,286047002.5,N
1512073015.1,286046999.7,N
1512073035.9,286046999.8,N
1512073055.7,286047000.2,N
1512073075.6,286046998.5,N
1512073095.4,286046999.0,N
1512073115.2,286046998.5,N
1512073135.1,286047000.8,N
1512073136.0,286047000.8,N
1512073155.8,286046999.9,N
1512073175.6,286047000.0,N
1512073195.5,286047001.5,N
1512073215.3,286046999.8,N
1512073235.2,286047000.6,N
1512073255.9,286047001.0,N
1512073275.7,286047001.2,N
1512073295.6,286046998.5,N
1512073315.4,286047000.9,N
1512073335.2,286047002.8,N
1512073355.1,286047002.7,N
1512073356.0,286047002.7,N
1512073375.8,286046999.8,N
1512073395.7,286047000.8,N
1512073415.5,286046998.8,N
1512073435.3,286046998.7,N
1512073455.2,286046998.1,N
1512073475.0,286047000.8,N
1512073475.9,286047000.8,N
1512073495.7,286046998.8,N
1512073515.6,286046998.3,N
1512073535.4,286047000.5,N
1512073555.3,286047000.9,N
1512073575.1,286047000.6,N
1512073576.0,286047000.6,N
1512073595.8,286047000.5,N
1512073615.7,286046999.7,N
1512073635.5,286047002.6,N
1512073655.3,286047000.1,N
1512073675.2,286047002.7,N
1512073695.0,286047002.7,N
1512073695.9,286047002.7,N
1512073715.8,286047002.4,N
1512073735.6,286047000.0,N
1512073755.4,286047000.3,N
1512073775.3,286047000.4,N
1512073795.1,286046998.3,N
1512073815.9,286046996.7,N
1512073835.7,286046999.4,N
1512073855.5,286046998.9,N
1512073875.4,286046999.1,N
1512073895.2,286046998.3,N
1512073915.0,286047001.0,N
1512073915.9,286047001.0,N
1512073935.8,286046998.5,N
1512073955.6,286047001.2,N
1512073975.5,286046998.7,N
1512073995.3,286047000.9,N
1512074015.1,286047000.2,N
1512074035.9,286047000.1,N
1512074055.7,286047002.7,N
1512074075.5,286047001.6,N
1512074095.4,286047001.7,N
1512074115.2,286047001.8,N
1512074135.1,286047002.6,N
1512074136.0,286047002.6,N
1512074155.8,286047002.1,N
1512074175.6,286046999.7,N
1512074195.5,286046999.9,N
1512074215.3,286047000.9,N
1512074235.1,286047002.4,N
1512074255.9,286047001.6,N
1512074275.7,286047002.2,N
1512074295.6,286047002.7,N
1512074315.4,286047002.8,N
1512074335.2,286047000.2,N
1512074355.1,286047002.7,N
1512074356.0,286047002.7,N
1512074375.8,286047002.8,N
1512074395.6,286047004.2,N
1512074415.5,286047002.2,N
1512074435.3,286047003.2,N
1512074455.2,286047001.8,N
1512074475.9,286047001.5,N
1512074495.7,286047002.7,N
1512074515.6,286047002.1,N
1512074535.4,286046999.8,N
1512074555.2,286047000.8,N
1512074575.1,286047001.0,N
1512074576.0,286047001.0,N
1512074595.8,286047000.3,N
1512074615.7,286047000.7,N
1512074635.5,286047000.8,N
1512074655.3,286046999.7,N
1512074675.2,286047000.1,N
1512074695.0,286046999.9,N
1512074695.9,286046999.9,N
1512074715.8,286046998.2,N
1512074735.6,286046999.2,N
1512074755.4,286046997.2,N
1512074775.3,286046997.4,N
1512074795.1,286046996.5,N
1512074815.8,286046998.3,N
1512074835.7,286046998.4,N
1512074855.5,286046998.7,N
1512074875.4,286047000.7,N
1512074895.2,286047000.7,N
1512074915.0,286046996.8,N
1512074915.9,286046996.8,N
1512074935.8,286046996.5,N
1512074955.6,286046998.8,N
1512074975.5,286046998.8,N
1512074995.3,286046999.4,N
1512075015.1,286046996.7,N
1512075035.9,286046996.9,N
1512075055.7,286046995.2,N
1512075075.5,286046995.4,N
1512075095.4,286046998.0,N
1512075115.2,286046995.3,N
1512075135.1,286046993.7,Y
1512075136.0,286046993.7,P
1512075155.8,286046997.4,N
1512075175.6,286046997.0,N
1512075195.5,286046996.8,N
1512075215.3,286046997.9,N
1512075235.2,286046996.9,N
1512075255.0,286046997.1,N
1512075255.9,286046997.1,N
1512075275.7,286046996.9,N
1512075295.6,286046997.2,N
1512075315.4,286046996.9,N
1512075335.3,286046997.9,N
1512075355.1,286046997.5,N
1512075356.0,286046997.5,N
1512075375.8,286046997.3,N
1512075395.7,286046995.0,Y
1512075415.5,286047001.2,P
1512075435.4,286046998.6,N
1512075455.2,286046997.1,N
1512075475.0,286046999.1,N
1512075475.9,286046999.1,N
1512075495.8,286046998.9,N
1512075515.6,286046998.7,N
1512075535.5,286046999.1,N
1512075555.3,286046997.1,N
1512075575.1,286046995.5,Y
1512075595.9,286046997.0,P
